Weather History for Norfolk, NE

Change the Weather History Date:

Wednesday, December 4, 2013

  Actual Average Record
Temperature  
Mean Temperature 17 °F 27 °F  
Max Temperature 24 °F 37 °F 65 °F (1916)
Min Temperature 10 °F 17 °F -12 °F (1902)
Degree Days  
Heating Degree Days 48 38  
Month to date heating degree days 135 150  
Since 1 July heating degree days 1521 1595  
Cooling Degree Days 0 0  
Month to date cooling degree days 0 0  
Year to date cooling degree days 1005 915  
Moisture  
Dew Point 10 °F    
Average Humidity 73    
Maximum Humidity 84    
Minimum Humidity 61    
Precipitation  
Precipitation T in 0.03 in 0.80 in (1924)
Month to date precipitation T 0.12  
Year to date precipitation 24.79 26.78  
Snow  
Snow T in 0.20 in - ()
Month to date snowfall T 0.8  
Since 1 July snowfall 0.9 5.7  
Snow Depth 0.00 in    
Sea Level Pressure  
Sea Level Pressure 29.82 in    
Wind  
Wind Speed 23 mph (NW)    
Max Wind Speed 31 mph    
Max Gust Speed 39 mph    
Visibility 8 miles    
Events Rain , Snow    
T = Trace of Precipitation, MM = Missing Value Source: NWS Daily Summary

Daily Weather History Graph

Daily Weather History Graph

Search for Another Location

Airport:

Trip Planner

Search our weather history database for the weather conditions in past years. The results will help you decide how hot, cold, wet, or windy it might be!

Date:

Astronomy

Dec. 04, 2013 Rise Set
Actual Time 7:41 AM CST 4:58 PM CST
Civil Twilight 7:10 AM CST 5:29 PM CST
Nautical Twilight 6:35 AM CST 6:04 PM CST
Astronomical Twilight 6:01 AM CST 6:38 PM CST
Moon 9:10 AM CST (12/4) 7:11 PM CST (12/4)
Length of Visible Light 10h 19m
Length of Day
9h 17m
Waxing Crescent, 4% of the Moon is Illuminated
Dec 4
Waxing Crescent
Dec 9
First Quarter
Dec 17
Full
Dec 25
Last Quarter
Jan 1
New

Hourly Weather History & Observations

Time (CST) Temp. Windchill Dew Point Humidity Pressure Visibility Wind Dir Wind Speed Gust Speed Precip Events Conditions
12:12 AM 24.1 °F 10.6 °F 19.0 °F 81% 29.72 in 10.0 mi NNW 17.3 mph - N/A   Overcast
12:56 AM 21.9 °F 6.9 °F 18.0 °F 85% 29.78 in 10.0 mi NW 19.6 mph - N/A   Overcast
1:10 AM 21.9 °F 6.9 °F 18.0 °F 85% 29.73 in 6.0 mi NW 19.6 mph - N/A   Overcast
1:22 AM 21.9 °F 6.2 °F 19.0 °F 89% 29.73 in 4.0 mi NNW 21.9 mph 25.3 mph 0.00 in Rain Light Freezing Rain
1:36 AM 21.9 °F 6.9 °F 19.0 °F 89% 29.73 in 3.0 mi NW 19.6 mph - 0.00 in Snow Light Snow
1:56 AM 21.0 °F 4.6 °F 18.0 °F 88% 29.77 in 3.0 mi NNW 23.0 mph 29.9 mph 0.00 in Rain Light Freezing Rain
2:56 AM 19.9 °F 3.9 °F 17.1 °F 89% 29.75 in 5.0 mi NNW 20.7 mph 31.1 mph 0.00 in   Overcast
3:38 AM 19.0 °F 0.3 °F 15.1 °F 85% 29.70 in 10.0 mi NNW 28.8 mph 34.5 mph N/A   Overcast
3:56 AM 19.0 °F 2.0 °F 15.1 °F 85% 29.76 in 10.0 mi NNW 23.0 mph 32.2 mph N/A   Overcast
4:56 AM 19.0 °F 2.4 °F 15.1 °F 85% 29.77 in 10.0 mi NNW 21.9 mph - N/A   Overcast
5:35 AM 18.0 °F 0.2 °F 12.9 °F 81% 29.69 in 10.0 mi NNW 24.2 mph - N/A   Overcast
5:56 AM 19.0 °F 4.5 °F 12.9 °F 77% 29.75 in 10.0 mi NNW 16.1 mph - N/A   Overcast
6:56 AM 18.0 °F 1.3 °F 12.9 °F 81% 29.75 in 7.0 mi NNW 20.7 mph - 0.00 in   Overcast
7:52 AM 17.6 °F 1.7 °F 10.4 °F 73% 29.67 in 10.0 mi NW 18.4 mph 27.6 mph 0.00 in   Overcast
7:56 AM 17.1 °F 0.6 °F 10.9 °F 77% 29.74 in 10.0 mi NW 19.6 mph 27.6 mph 0.00 in   Overcast
8:56 AM 17.1 °F -1.0 °F 10.9 °F 77% 29.78 in 10.0 mi NW 24.2 mph 32.2 mph N/A   Overcast
9:36 AM 16.0 °F -1.3 °F 12.0 °F 84% 29.71 in 2.5 mi NW 20.7 mph 26.5 mph 0.00 in Snow Light Snow
9:56 AM 16.0 °F -1.7 °F 10.9 °F 81% 29.78 in 4.0 mi NW 21.9 mph 28.8 mph 0.00 in Snow Light Snow
10:21 AM 16.0 °F -0.4 °F 10.9 °F 81% 29.72 in 5.0 mi NW 18.4 mph 29.9 mph 0.00 in Snow Light Snow
10:56 AM 16.0 °F -2.1 °F 10.9 °F 81% 29.78 in 6.0 mi NW 23.0 mph 31.1 mph 0.00 in Snow Light Snow
11:21 AM 16.0 °F -1.3 °F 10.9 °F 81% 29.72 in 4.0 mi NW 20.7 mph 32.2 mph 0.00 in Snow Light Snow
11:56 AM 15.1 °F -4.0 °F 8.1 °F 74% 29.79 in 9.0 mi NW 25.3 mph 35.7 mph 0.00 in Snow Light Snow
12:37 PM 16.0 °F -2.5 °F 8.1 °F 71% 29.71 in 10.0 mi NW 24.2 mph 33.4 mph 0.00 in   Overcast
12:56 PM 16.0 °F -2.5 °F 9.0 °F 74% 29.79 in 10.0 mi NW 24.2 mph 33.4 mph 0.00 in   Overcast
1:56 PM 17.1 °F 0.1 °F 7.0 °F 65% 29.78 in 10.0 mi NW 20.7 mph 33.4 mph 0.00 in   Overcast
2:28 PM 17.1 °F -1.7 °F 7.0 °F 65% 29.74 in 10.0 mi NW 26.5 mph 34.5 mph 0.00 in   Overcast
2:53 PM 17.6 °F -0.3 °F 6.8 °F 63% 29.75 in 10.0 mi WNW 24.2 mph 34.5 mph 0.00 in   Overcast
2:56 PM 17.1 °F -3.0 °F 6.1 °F 62% 29.82 in 10.0 mi WNW 31.1 mph 36.8 mph 0.00 in   Overcast
3:56 PM 16.0 °F -3.5 °F 5.0 °F 62% 29.85 in 10.0 mi NW 27.6 mph 35.7 mph 0.00 in   Overcast
4:11 PM 16.0 °F -2.8 °F 6.1 °F 65% 29.78 in 10.0 mi NW 25.3 mph 32.2 mph N/A   Overcast
4:56 PM 14.0 °F -6.2 °F 5.0 °F 67% 29.91 in 10.0 mi WNW 27.6 mph 34.5 mph 0.00 in   Mostly Cloudy
5:56 PM 14.0 °F -2.5 °F 5.0 °F 67% 29.94 in 10.0 mi NW 17.3 mph 29.9 mph N/A   Overcast
6:56 PM 12.9 °F -6.1 °F 5.0 °F 71% 29.94 in 10.0 mi NW 23.0 mph 31.1 mph 0.00 in   Overcast
7:56 PM 12.9 °F -5.3 °F 5.0 °F 71% 29.97 in 10.0 mi NW 20.7 mph 32.2 mph 0.00 in   Overcast
8:56 PM 14.0 °F -5.1 °F 5.0 °F 67% 30.01 in 10.0 mi NW 24.2 mph 35.7 mph N/A   Mostly Cloudy
9:56 PM 14.0 °F -4.7 °F 5.0 °F 67% 30.06 in 10.0 mi NW 23.0 mph 31.1 mph 0.00 in   Mostly Cloudy
10:56 PM 12.0 °F -7.7 °F 3.0 °F 67% 30.09 in 10.0 mi NW 24.2 mph 29.9 mph 0.00 in   Overcast
11:17 PM 10.9 °F -5.4 °F 1.9 °F 67% 30.02 in 10.0 mi NW 15.0 mph 28.8 mph N/A   Scattered Clouds
11:56 PM 10.0 °F -9.5 °F 1.0 °F 67% 30.13 in 10.0 mi NW 21.9 mph 29.9 mph N/A   Scattered Clouds